Tracking 29594 objects as of 20-Sep-2024
HD Live streaming from Space Station
objects crossing your sky now

FENGYUN 1C DEB

Track FENGYUN 1C DEB now!
10-day predictions


NORAD ID: 30355
Int'l Code: 1999-025ABS
Perigee: 803.6 km
Apogee: 884.3 km
Inclination: 98.6 °
Period: 101.7 minutes
Semi major axis: 7214 km
RCS: 0.025 m2 (small)
Launch date: May 10, 1999
Source: People's Republic of China (PRC)
Launch site: Taiyaun Space Center, China (TSC)

Note: This is SATELLITE DEBRIS
Your satellite tracking list
Your tracking list is empty




NASA's NSSDC Master Catalog

Two Line Element Set (TLE):
1 30355U 99025ABS 24263.79012510  .00003150  00000-0  15754-2 0  9996
2 30355  98.5989 276.5965 0055870 160.7137  13.9559 14.16617739909887
Source of the keplerian elements: AFSPC